sat.trackr.live / text

‹ back to catalog

HULIANWANG DIGUI-60

NORAD 65166 · 2025-174C

PAYLOAD ACTIVE UNKNOWN

§ Identity

Operator
Country
PRC
Launch date
2025-08-13
Launch site
WSC
Launch vehicle
Mass (kg)
RCS (m²)

External: N2YO · Heavens-Above · Gunter

§ Orbital elements

Epoch: 2026-09-21T21:47:54.971232Z

Period
108.73 min
Inclination
86.4985°
Eccentricity
0.0002213
Mean motion
13.24399614 rev/d
Perigee alt
1,166.3 km
Apogee alt
1,169.6 km
Semi-major
7,546.1 km
B*
1.0288e-4
RAAN
219.3412°
Arg perigee
74.3290°
Mean anomaly
285.8088°
Rev number
5,359

§ Raw data

HULIANWANG DIGUI-601 65166U 25174C   26264.90827513  .00000059  00000+0  10288-3 0  99932 65166  86.4985 219.3412 0002213  74.3290 285.8088 13.24399614 53594

JSON: /api/v1/satellites/65166 · /tle

For live sub-satellite position, see the globe view (requires WebGL).

§ Visibility from observer

Set your observer location to see the next 7 days of passes ≥ 10°. The values pass through the URL so the page stays shareable.

No JS? Fill the form by hand. The geolocation button needs JavaScript.